CPA549 RJTT-VHHH

Flight info

Callsign CPA549
Flight time N/A
Altitude 34000
Route LAXAS4 LAXAS Y56 TOHME Y54 TURFY Y24 KOSHI A1 APU/N0488F360 A1 ELATO V522 ABBEY ABBEY4A
Aircraft B77W/H-SDE1E2E3FGHIJ2J3J4J5M1RWXY/LB1D1

Departure

Time 2026-04-30 11:06
Airport Tokyo Haneda International Airport (RJTT)

Arrival

Time N/A
Airport Hong Kong International Airport (VHHH)
Time Latitude Longitude Altitude Speed Heading
2026-04-30 09:52 35.54814 139.76592 28 ft 0 kts 150°
2026-04-30 10:46 35.54815 139.76592 28 ft 1 kts 150°
2026-04-30 10:46 35.54834 139.76579 26 ft 4 kts 149°
2026-04-30 10:46 35.54853 139.76565 26 ft 4 kts 161°
2026-04-30 10:46 35.54878 139.76563 27 ft 4 kts 207°
2026-04-30 10:47 35.54897 139.76583 27 ft 4 kts 235°
2026-04-30 10:47 35.54906 139.76599 27 ft 0 kts 239°
2026-04-30 10:51 35.54901 139.76588 27 ft 5 kts 239°
2026-04-30 10:51 35.54876 139.76536 28 ft 12 kts 240°
2026-04-30 10:52 35.54866 139.76438 29 ft 12 kts 294°
2026-04-30 10:52 35.54934 139.76427 29 ft 10 kts 29°
2026-04-30 10:52 35.55044 139.76520 29 ft 20 kts 36°
2026-04-30 10:52 35.55126 139.76657 29 ft 20 kts 61°
2026-04-30 10:53 35.55197 139.76808 28 ft 21 kts 59°
2026-04-30 10:53 35.55267 139.76960 31 ft 20 kts 67°
2026-04-30 10:53 35.55218 139.77078 28 ft 16 kts 148°
2026-04-30 10:53 35.55110 139.77156 29 ft 19 kts 149°
2026-04-30 10:54 35.55032 139.77210 33 ft 19 kts 150°
2026-04-30 10:54 35.54866 139.77328 28 ft 23 kts 150°
2026-04-30 10:54 35.54770 139.77396 28 ft 24 kts 150°
2026-04-30 10:54 35.54624 139.77499 29 ft 24 kts 150°
2026-04-30 10:55 35.54478 139.77604 30 ft 24 kts 150°
2026-04-30 10:55 35.54332 139.77707 27 ft 24 kts 150°
2026-04-30 10:55 35.54138 139.77845 27 ft 24 kts 149°
2026-04-30 10:55 35.54041 139.77914 32 ft 23 kts 151°
2026-04-30 10:56 35.53945 139.78023 28 ft 15 kts 93°
2026-04-30 10:56 35.53991 139.78141 29 ft 16 kts 59°
2026-04-30 10:56 35.54047 139.78258 28 ft 17 kts 59°
2026-04-30 10:56 35.54125 139.78427 27 ft 19 kts 71°
2026-04-30 10:57 35.54080 139.78522 29 ft 13 kts 147°
2026-04-30 10:57 35.54000 139.78580 30 ft 14 kts 150°
2026-04-30 10:57 35.53915 139.78641 30 ft 14 kts 150°
2026-04-30 10:57 35.53829 139.78701 26 ft 14 kts 150°
2026-04-30 10:58 35.53739 139.78773 30 ft 16 kts 141°
2026-04-30 10:58 35.53653 139.78862 26 ft 17 kts 140°
2026-04-30 10:58 35.53562 139.78957 26 ft 17 kts 139°
2026-04-30 10:58 35.53466 139.79057 24 ft 20 kts 139°
2026-04-30 10:59 35.53379 139.79184 27 ft 20 kts 110°
2026-04-30 10:59 35.53413 139.79341 28 ft 20 kts 60°
2026-04-30 10:59 35.53482 139.79486 26 ft 20 kts 59°
2026-04-30 10:59 35.53551 139.79629 31 ft 20 kts 59°
2026-04-30 11:00 35.53619 139.79775 26 ft 20 kts 60°
2026-04-30 11:00 35.53688 139.79919 31 ft 20 kts 59°
2026-04-30 11:00 35.53669 139.80049 30 ft 17 kts 144°
2026-04-30 11:00 35.53557 139.80131 32 ft 19 kts 149°
2026-04-30 11:01 35.53441 139.80214 36 ft 19 kts 150°
2026-04-30 11:01 35.53322 139.80298 42 ft 20 kts 150°
2026-04-30 11:01 35.53202 139.80384 47 ft 20 kts 150°
2026-04-30 11:01 35.53080 139.80470 49 ft 20 kts 150°
2026-04-30 11:02 35.52961 139.80517 48 ft 17 kts 200°
2026-04-30 11:02 35.52876 139.80431 49 ft 16 kts 223°
2026-04-30 11:02 35.52786 139.80329 49 ft 18 kts 222°
2026-04-30 11:02 35.52691 139.80223 50 ft 22 kts 222°
2026-04-30 11:03 35.52579 139.80152 49 ft 13 kts 160°
2026-04-30 11:03 35.52509 139.80226 49 ft 14 kts 131°
2026-04-30 11:03 35.52496 139.80245 50 ft 1 kts 132°
2026-04-30 11:04 35.52483 139.80261 51 ft 0 kts 132°
2026-04-30 11:04 35.52456 139.80298 50 ft 13 kts 133°
2026-04-30 11:04 35.52429 139.80363 52 ft 8 kts 79°
2026-04-30 11:04 35.52455 139.80408 50 ft 0 kts 42°
2026-04-30 11:05 35.52479 139.80436 53 ft 18 kts 42°
2026-04-30 11:05 35.52760 139.80749 49 ft 96 kts 43°
2026-04-30 11:05 35.53442 139.81513 52 ft 165 kts 41°
2026-04-30 11:06 35.54354 139.82544 452 ft 184 kts 42°
2026-04-30 11:06 35.55302 139.83631 1182 ft 188 kts 42°
2026-04-30 11:06 35.56217 139.84810 1820 ft 196 kts 60°
2026-04-30 11:06 35.56547 139.86496 2060 ft 219 kts 99°
2026-04-30 11:07 35.56041 139.88329 2488 ft 231 kts 110°
2026-04-30 11:07 35.55488 139.90215 3167 ft 239 kts 109°
2026-04-30 11:07 35.54940 139.92171 3910 ft 244 kts 113°
2026-04-30 11:07 35.53969 139.93884 4525 ft 250 kts 141°
2026-04-30 11:08 35.52398 139.94800 5323 ft 254 kts 167°
2026-04-30 11:08 35.50627 139.94857 6094 ft 257 kts 189°
2026-04-30 11:08 35.48864 139.94418 6849 ft 259 kts 192°
2026-04-30 11:08 35.47088 139.93980 7625 ft 262 kts 192°
2026-04-30 11:09 35.45408 139.93228 8184 ft 265 kts 215°
2026-04-30 11:09 35.44049 139.91650 8855 ft 267 kts 227°
2026-04-30 11:09 35.42803 139.89977 9585 ft 270 kts 227°
2026-04-30 11:09 35.41546 139.88257 10332 ft 274 kts 231°
2026-04-30 11:10 35.40354 139.86342 10622 ft 294 kts 234°
2026-04-30 11:10 35.39108 139.84212 10816 ft 319 kts 234°
2026-04-30 11:10 35.37763 139.81896 11005 ft 344 kts 234°
2026-04-30 11:10 35.36346 139.79469 11516 ft 357 kts 234°
2026-04-30 11:11 35.34875 139.76970 12225 ft 366 kts 235°
2026-04-30 11:11 35.33371 139.74432 13128 ft 370 kts 235°
2026-04-30 11:11 35.31861 139.71897 14040 ft 375 kts 235°
2026-04-30 11:11 35.30304 139.69293 14836 ft 380 kts 235°
2026-04-30 11:12 35.28737 139.66677 15704 ft 383 kts 235°
2026-04-30 11:12 35.27155 139.64039 16567 ft 386 kts 236°
2026-04-30 11:12 35.25551 139.61369 17402 ft 390 kts 236°
2026-04-30 11:12 35.23939 139.58688 18213 ft 394 kts 235°
2026-04-30 11:13 35.22301 139.55964 18887 ft 397 kts 236°
2026-04-30 11:13 35.20667 139.53252 19489 ft 397 kts 236°
2026-04-30 11:13 35.19027 139.50531 20137 ft 396 kts 236°
2026-04-30 11:13 35.17393 139.47823 20809 ft 395 kts 236°
2026-04-30 11:14 35.15762 139.45121 21442 ft 395 kts 237°
2026-04-30 11:14 35.14137 139.42428 22001 ft 395 kts 237°
2026-04-30 11:14 35.12503 139.39724 22554 ft 396 kts 237°
2026-04-30 11:14 35.10858 139.37002 23088 ft 397 kts 237°
2026-04-30 11:15 35.09220 139.34294 23608 ft 398 kts 237°
2026-04-30 11:15 35.07575 139.31578 24053 ft 399 kts 237°
2026-04-30 11:15 35.05929 139.28853 24436 ft 400 kts 238°
2026-04-30 11:15 35.04509 139.25978 24775 ft 399 kts 246°
2026-04-30 11:16 35.03357 139.22853 25138 ft 400 kts 250°
2026-04-30 11:16 35.02406 139.19704 25492 ft 401 kts 253°
2026-04-30 11:16 35.01733 139.16385 25834 ft 403 kts 258°
2026-04-30 11:16 35.01201 139.13022 26170 ft 405 kts 258°
2026-04-30 11:17 35.00664 139.09633 26505 ft 407 kts 258°
2026-04-30 11:17 35.00110 139.06233 26856 ft 409 kts 258°
2026-04-30 11:17 34.99546 139.02843 27198 ft 409 kts 257°
2026-04-30 11:17 34.98999 138.99461 27515 ft 412 kts 259°
2026-04-30 11:18 34.98631 138.95984 27813 ft 415 kts 263°
2026-04-30 11:18 34.98300 138.88906 28391 ft 419 kts 264°
2026-04-30 11:18 34.98118 138.85346 28641 ft 421 kts 263°
2026-04-30 11:19 34.97929 138.81779 28848 ft 423 kts 263°
2026-04-30 11:19 34.97736 138.78176 29145 ft 424 kts 263°
2026-04-30 11:19 34.97541 138.74579 29434 ft 425 kts 263°
2026-04-30 11:19 34.97345 138.70969 29688 ft 427 kts 263°
2026-04-30 11:20 34.97151 138.67396 29895 ft 428 kts 263°
2026-04-30 11:20 34.96953 138.63763 30088 ft 430 kts 263°
2026-04-30 11:20 34.96753 138.60114 30212 ft 433 kts 263°
2026-04-30 11:20 34.96551 138.56440 30355 ft 435 kts 263°
2026-04-30 11:21 34.96347 138.52754 30539 ft 435 kts 262°
2026-04-30 11:21 34.96144 138.49095 30854 ft 432 kts 263°
2026-04-30 11:21 34.95943 138.45472 31244 ft 426 kts 262°
2026-04-30 11:21 34.95741 138.41866 31606 ft 423 kts 262°
2026-04-30 11:22 34.95539 138.38285 31842 ft 422 kts 262°
2026-04-30 11:22 34.95335 138.34720 32062 ft 421 kts 262°
2026-04-30 11:22 34.95132 138.31168 32317 ft 420 kts 262°
2026-04-30 11:22 34.94929 138.27627 32602 ft 417 kts 262°
2026-04-30 11:23 34.94728 138.24149 32866 ft 415 kts 262°
2026-04-30 11:23 34.94525 138.20646 33091 ft 414 kts 262°
2026-04-30 11:23 34.94116 138.13637 33506 ft 413 kts 262°
2026-04-30 11:24 34.93913 138.10158 33781 ft 410 kts 262°
2026-04-30 11:24 34.93710 138.06693 34007 ft 409 kts 262°
2026-04-30 11:24 34.93505 138.03232 34027 ft 410 kts 261°
2026-04-30 11:25 34.92888 137.92820 34127 ft 409 kts 261°
2026-04-30 11:26 34.92063 137.79075 34115 ft 407 kts 261°
2026-04-30 11:26 34.91647 137.72195 34111 ft 405 kts 259°
2026-04-30 11:27 34.90571 137.65498 34109 ft 402 kts 253°
2026-04-30 11:27 34.88841 137.59025 34092 ft 402 kts 248°
2026-04-30 11:28 34.85920 137.49459 34092 ft 404 kts 248°
2026-04-30 11:29 34.84016 137.43004 34092 ft 406 kts 249°
2026-04-30 11:29 34.81254 137.33240 34077 ft 407 kts 249°
2026-04-30 11:30 34.78468 137.23474 34076 ft 407 kts 249°
2026-04-30 11:31 34.76602 137.16970 34079 ft 407 kts 249°
2026-04-30 11:31 34.74736 137.10480 34071 ft 407 kts 249°
2026-04-30 11:32 34.72866 137.03988 34069 ft 405 kts 249°
2026-04-30 11:32 34.70701 136.97745 34094 ft 403 kts 242°
2026-04-30 11:33 34.66227 136.89107 34085 ft 404 kts 234°
2026-04-30 11:33 34.62740 136.83744 34088 ft 404 kts 233°
2026-04-30 11:34 34.59239 136.78389 34074 ft 405 kts 233°
2026-04-30 11:34 34.55735 136.73010 34072 ft 407 kts 233°
2026-04-30 11:35 34.52242 136.67641 34082 ft 408 kts 233°
2026-04-30 11:35 34.48719 136.62229 34079 ft 409 kts 233°
2026-04-30 11:36 34.45186 136.56809 34064 ft 409 kts 233°
2026-04-30 11:36 34.41653 136.51396 34069 ft 410 kts 233°
2026-04-30 11:37 34.38116 136.45987 34073 ft 409 kts 233°
2026-04-30 11:37 34.34578 136.40582 34077 ft 409 kts 233°
2026-04-30 11:38 34.31038 136.35185 34053 ft 409 kts 233°
2026-04-30 11:38 34.27530 136.29846 34062 ft 408 kts 233°
2026-04-30 11:39 34.24001 136.24479 34053 ft 407 kts 233°
2026-04-30 11:39 34.21049 136.19996 34064 ft 407 kts 233°
2026-04-30 11:40 34.17516 136.14638 34043 ft 408 kts 233°
2026-04-30 11:40 34.13979 136.09289 34062 ft 407 kts 233°
2026-04-30 11:41 34.10457 136.03961 34059 ft 408 kts 233°
2026-04-30 11:41 34.06907 135.98606 34046 ft 409 kts 233°
2026-04-30 11:42 34.03339 135.93226 34040 ft 411 kts 233°
2026-04-30 11:42 33.99754 135.87833 34048 ft 412 kts 233°
2026-04-30 11:43 33.96172 135.82446 34021 ft 412 kts 232°
2026-04-30 11:43 33.92582 135.77060 33996 ft 412 kts 232°
2026-04-30 11:44 33.89023 135.71729 34009 ft 411 kts 232°
2026-04-30 11:44 33.85436 135.66365 33993 ft 411 kts 233°
2026-04-30 11:45 33.81855 135.61016 33994 ft 411 kts 232°
2026-04-30 11:45 33.78256 135.55648 33996 ft 412 kts 232°
2026-04-30 11:46 33.74654 135.50282 33954 ft 413 kts 232°
2026-04-30 11:46 33.71038 135.44907 33944 ft 414 kts 232°
2026-04-30 11:47 33.67417 135.39529 33937 ft 414 kts 232°
2026-04-30 11:47 33.63814 135.34186 33942 ft 414 kts 232°
2026-04-30 11:48 33.60187 135.28817 33939 ft 414 kts 232°
2026-04-30 11:48 33.56563 135.23460 33946 ft 413 kts 232°
2026-04-30 11:49 33.52929 135.18095 33950 ft 413 kts 232°
2026-04-30 11:49 33.49335 135.12797 33952 ft 413 kts 232°
2026-04-30 11:50 33.45710 135.07460 33929 ft 413 kts 232°
2026-04-30 11:50 33.42078 135.02120 33956 ft 413 kts 232°
2026-04-30 11:51 33.38446 134.96780 33955 ft 413 kts 233°
2026-04-30 11:51 33.34846 134.91465 33951 ft 413 kts 233°
2026-04-30 11:52 33.31216 134.86111 33946 ft 414 kts 233°
2026-04-30 11:52 33.27589 134.80771 33940 ft 413 kts 233°
2026-04-30 11:53 33.23965 134.75443 33942 ft 413 kts 233°
2026-04-30 11:53 33.20336 134.70117 33936 ft 413 kts 233°
2026-04-30 11:54 33.17229 134.64390 33924 ft 412 kts 242°
2026-04-30 11:54 33.14803 134.58179 33939 ft 414 kts 248°
2026-04-30 11:55 33.13131 134.51578 33937 ft 415 kts 251°
2026-04-30 11:55 33.11534 134.44948 33923 ft 416 kts 251°
2026-04-30 11:56 33.09919 134.38369 33928 ft 415 kts 251°
2026-04-30 11:56 33.08279 134.31760 33920 ft 415 kts 251°
2026-04-30 11:57 33.06641 134.25173 33912 ft 414 kts 251°
2026-04-30 11:57 33.05021 134.18586 33924 ft 414 kts 251°
2026-04-30 11:58 33.03431 134.11994 33897 ft 413 kts 251°
2026-04-30 11:58 33.01842 134.05421 33908 ft 413 kts 251°
2026-04-30 11:59 33.00244 133.98845 33915 ft 413 kts 251°
2026-04-30 11:59 32.98644 133.92281 33896 ft 412 kts 251°
2026-04-30 12:00 32.97043 133.85735 33887 ft 411 kts 251°
2026-04-30 12:00 32.95452 133.79242 33910 ft 411 kts 250°
2026-04-30 12:01 32.93846 133.72704 33897 ft 411 kts 250°
2026-04-30 12:01 32.92236 133.66163 33896 ft 411 kts 250°
2026-04-30 12:02 32.90625 133.59633 33909 ft 411 kts 250°
2026-04-30 12:02 32.89006 133.53103 33891 ft 411 kts 250°
2026-04-30 12:03 32.86570 133.43333 33897 ft 412 kts 250°
2026-04-30 12:04 32.84935 133.36785 33902 ft 412 kts 250°
2026-04-30 12:04 32.83299 133.30249 33887 ft 412 kts 250°
2026-04-30 12:05 32.81662 133.23729 33882 ft 411 kts 250°
2026-04-30 12:05 32.80023 133.17210 33896 ft 412 kts 250°
2026-04-30 12:06 32.78379 133.10688 33887 ft 411 kts 250°
2026-04-30 12:06 32.76744 133.04221 33884 ft 411 kts 249°
2026-04-30 12:07 32.74712 132.97913 33885 ft 407 kts 243°
2026-04-30 12:07 32.72036 132.91994 33879 ft 406 kts 239°
2026-04-30 12:08 32.69290 132.86134 33873 ft 405 kts 239°
2026-04-30 12:08 32.66553 132.80283 33869 ft 406 kts 239°
2026-04-30 12:09 32.63812 132.74421 33873 ft 406 kts 239°
2026-04-30 12:09 32.61079 132.68581 33869 ft 406 kts 239°
2026-04-30 12:10 32.58328 132.62708 33872 ft 407 kts 239°
2026-04-30 12:10 32.55575 132.56844 33874 ft 407 kts 239°
2026-04-30 12:11 32.52820 132.50984 33861 ft 406 kts 239°
2026-04-30 12:11 32.50084 132.45174 33870 ft 407 kts 239°
2026-04-30 12:12 32.47320 132.39313 33893 ft 407 kts 239°
2026-04-30 12:12 32.44557 132.33463 33866 ft 407 kts 239°
2026-04-30 12:13 32.41788 132.27612 33868 ft 407 kts 239°
2026-04-30 12:13 32.39017 132.21766 33874 ft 407 kts 239°
2026-04-30 12:14 32.36261 132.15957 33879 ft 407 kts 239°
2026-04-30 12:14 32.33493 132.10134 33853 ft 406 kts 239°
2026-04-30 12:15 32.30719 132.04309 33868 ft 406 kts 239°
2026-04-30 12:15 32.27943 131.98488 33914 ft 407 kts 239°
2026-04-30 12:16 32.25155 131.92652 33886 ft 407 kts 239°
2026-04-30 12:16 32.22374 131.86838 33851 ft 406 kts 239°
2026-04-30 12:17 32.18209 131.78149 33876 ft 405 kts 239°
2026-04-30 12:17 32.15445 131.72393 33900 ft 405 kts 239°
2026-04-30 12:18 32.12666 131.66615 33873 ft 404 kts 239°
2026-04-30 12:18 32.09892 131.60858 33855 ft 403 kts 239°
2026-04-30 12:19 32.07111 131.55095 33876 ft 404 kts 239°
2026-04-30 12:19 32.04349 131.49378 33860 ft 404 kts 239°
2026-04-30 12:20 32.01556 131.43608 33848 ft 405 kts 239°
2026-04-30 12:20 31.98759 131.37839 33829 ft 405 kts 239°
2026-04-30 12:21 31.95964 131.32081 33855 ft 406 kts 238°
2026-04-30 12:21 31.93152 131.26296 33853 ft 406 kts 238°
2026-04-30 12:22 31.90337 131.20517 33902 ft 406 kts 238°
2026-04-30 12:22 31.87549 131.14801 33891 ft 405 kts 238°
2026-04-30 12:23 31.84742 131.09055 33902 ft 405 kts 238°
2026-04-30 12:23 31.81937 131.03320 33889 ft 404 kts 238°
2026-04-30 12:24 31.79600 130.98551 33881 ft 404 kts 238°
2026-04-30 12:24 31.76794 130.92831 33846 ft 404 kts 238°
2026-04-30 12:25 31.73985 130.87114 33881 ft 403 kts 238°
2026-04-30 12:25 31.71176 130.81405 33870 ft 404 kts 238°
2026-04-30 12:26 31.68365 130.75701 33863 ft 403 kts 238°
2026-04-30 12:26 31.65555 130.70008 33823 ft 403 kts 238°
2026-04-30 12:27 31.62756 130.64347 33895 ft 404 kts 238°
2026-04-30 12:27 31.59929 130.58636 33912 ft 406 kts 238°
2026-04-30 12:28 31.57087 130.52903 33912 ft 407 kts 238°
2026-04-30 12:28 31.54229 130.47148 33945 ft 408 kts 238°
2026-04-30 12:29 31.51379 130.41414 33927 ft 406 kts 238°
2026-04-30 12:29 31.48539 130.35711 33921 ft 404 kts 238°
2026-04-30 12:30 31.45711 130.30041 33917 ft 402 kts 238°
2026-04-30 12:30 31.42895 130.24403 33949 ft 400 kts 238°
2026-04-30 12:31 31.40088 130.18791 33928 ft 399 kts 238°
2026-04-30 12:31 31.37280 130.13186 33924 ft 399 kts 238°
2026-04-30 12:32 31.34488 130.07620 33930 ft 399 kts 238°
2026-04-30 12:32 31.31669 130.02007 33971 ft 400 kts 238°
2026-04-30 12:33 31.28791 129.96446 33903 ft 399 kts 235°
2026-04-30 12:33 31.25426 129.91278 33930 ft 399 kts 232°
2026-04-30 12:34 31.21983 129.86146 33941 ft 400 kts 232°
2026-04-30 12:34 31.18553 129.81016 33935 ft 401 kts 232°
2026-04-30 12:35 31.15122 129.75888 33928 ft 400 kts 232°
2026-04-30 12:35 31.11700 129.70780 33938 ft 399 kts 232°
2026-04-30 12:36 31.08301 129.65716 33945 ft 398 kts 232°
2026-04-30 12:36 31.04888 129.60635 33943 ft 398 kts 232°
2026-04-30 12:37 31.01471 129.55556 33907 ft 398 kts 232°
2026-04-30 12:37 30.98058 129.50489 33938 ft 398 kts 232°
2026-04-30 12:38 30.94627 129.45403 33949 ft 399 kts 232°
2026-04-30 12:38 30.91186 129.40306 33954 ft 400 kts 232°
2026-04-30 12:39 30.87735 129.35203 33921 ft 401 kts 232°
2026-04-30 12:39 30.84282 129.30103 33957 ft 401 kts 232°
2026-04-30 12:40 30.80855 129.25045 33951 ft 401 kts 232°
2026-04-30 12:40 30.77404 129.19961 33954 ft 400 kts 232°
2026-04-30 12:41 30.74009 129.14839 33958 ft 400 kts 233°
2026-04-30 12:41 30.70642 129.09692 33971 ft 400 kts 233°
2026-04-30 12:42 30.67259 129.04535 33969 ft 400 kts 233°
2026-04-30 12:42 30.63879 128.99397 33958 ft 400 kts 233°
2026-04-30 12:43 30.60508 128.94286 33966 ft 400 kts 233°
2026-04-30 12:43 30.57128 128.89169 33997 ft 400 kts 233°
2026-04-30 12:44 30.53728 128.84029 33980 ft 401 kts 233°
2026-04-30 12:44 30.50334 128.78904 33971 ft 400 kts 233°
2026-04-30 12:45 30.46939 128.73783 33976 ft 400 kts 233°
2026-04-30 12:45 30.43551 128.68680 33944 ft 399 kts 233°
2026-04-30 12:46 30.40177 128.63605 34000 ft 401 kts 233°
2026-04-30 12:46 30.36772 128.58489 33982 ft 401 kts 233°
2026-04-30 12:47 30.33365 128.53376 33978 ft 401 kts 233°
2026-04-30 12:47 30.29948 128.48256 33942 ft 401 kts 233°
2026-04-30 12:48 30.26543 128.43159 33973 ft 401 kts 233°
2026-04-30 12:48 30.23122 128.38046 33983 ft 402 kts 233°
2026-04-30 12:49 30.19697 128.32934 33993 ft 402 kts 233°
2026-04-30 12:49 30.16271 128.27824 33992 ft 403 kts 233°
2026-04-30 12:50 30.12833 128.22706 33992 ft 403 kts 233°
2026-04-30 12:50 30.09418 128.17627 34027 ft 403 kts 233°
2026-04-30 12:51 30.05965 128.12499 34007 ft 401 kts 233°
2026-04-30 12:51 30.02566 128.07456 34001 ft 400 kts 233°
2026-04-30 12:52 29.99152 128.02397 33967 ft 398 kts 233°
2026-04-30 12:52 29.95744 127.97354 34001 ft 400 kts 233°
2026-04-30 12:53 29.92309 127.92276 34015 ft 402 kts 233°
2026-04-30 12:53 29.88863 127.87187 34008 ft 402 kts 233°
2026-04-30 12:54 29.85399 127.82121 33968 ft 402 kts 232°
2026-04-30 12:54 29.81762 127.77241 34009 ft 402 kts 231°
2026-04-30 12:55 29.78082 127.72380 34017 ft 402 kts 231°
2026-04-30 12:55 29.74440 127.67528 34029 ft 403 kts 231°
2026-04-30 12:56 29.70793 127.62650 34022 ft 402 kts 231°
2026-04-30 12:56 29.67151 127.57780 34018 ft 401 kts 231°
2026-04-30 12:57 29.63500 127.52903 34025 ft 402 kts 231°
2026-04-30 12:57 29.59832 127.48011 34034 ft 404 kts 231°
2026-04-30 12:58 29.56254 127.43092 34040 ft 404 kts 233°
2026-04-30 12:58 29.52791 127.38025 34015 ft 403 kts 234°
2026-04-30 12:59 29.49331 127.32960 34037 ft 403 kts 234°
2026-04-30 12:59 29.45856 127.27913 34042 ft 403 kts 233°
2026-04-30 13:00 29.42371 127.22875 34083 ft 403 kts 233°
2026-04-30 13:00 29.38904 127.17875 34055 ft 402 kts 233°
2026-04-30 13:01 29.35417 127.12853 34043 ft 402 kts 234°
2026-04-30 13:01 29.31926 127.07829 34053 ft 403 kts 234°
2026-04-30 13:02 29.28417 127.02786 34056 ft 405 kts 233°
2026-04-30 13:02 29.24922 126.97770 34088 ft 406 kts 234°
2026-04-30 13:03 29.21400 126.92721 34039 ft 404 kts 234°
2026-04-30 13:03 29.17892 126.87699 34055 ft 404 kts 234°
2026-04-30 13:04 29.14382 126.82678 34063 ft 404 kts 234°
2026-04-30 13:04 29.10871 126.77661 34063 ft 404 kts 234°
2026-04-30 13:05 29.07358 126.72650 34076 ft 404 kts 234°
2026-04-30 13:06 29.02103 126.65161 34061 ft 404 kts 234°
2026-04-30 13:06 28.98575 126.60141 34072 ft 406 kts 234°
2026-04-30 13:07 28.94991 126.55124 34073 ft 408 kts 233°
2026-04-30 13:07 28.91317 126.50187 34073 ft 408 kts 233°
2026-04-30 13:08 28.88253 126.46082 34060 ft 408 kts 233°
2026-04-30 13:08 28.84577 126.41139 34078 ft 408 kts 233°
2026-04-30 13:09 28.80308 126.35393 34074 ft 408 kts 233°
2026-04-30 13:09 28.77234 126.31258 34081 ft 408 kts 233°
2026-04-30 13:10 28.73564 126.26327 34071 ft 408 kts 233°
2026-04-30 13:10 28.69907 126.21420 34080 ft 409 kts 233°
2026-04-30 13:11 28.66218 126.16474 34085 ft 410 kts 233°
2026-04-30 13:11 28.62536 126.11518 34081 ft 410 kts 234°
2026-04-30 13:12 28.58945 126.06466 34080 ft 410 kts 234°
2026-04-30 13:12 28.55375 126.01396 34083 ft 410 kts 234°
2026-04-30 13:13 28.50007 125.93816 34088 ft 410 kts 234°
2026-04-30 13:14 28.44652 125.86291 34088 ft 409 kts 234°
2026-04-30 13:14 28.39276 125.78752 34057 ft 409 kts 234°
2026-04-30 13:15 28.33872 125.71189 34101 ft 411 kts 234°
2026-04-30 13:16 28.30264 125.66145 34093 ft 411 kts 234°
2026-04-30 13:16 28.26676 125.61135 34093 ft 411 kts 234°
2026-04-30 13:17 28.21255 125.53578 34084 ft 411 kts 234°
2026-04-30 13:18 28.15821 125.46017 34110 ft 412 kts 234°
2026-04-30 13:18 28.10397 125.38482 34100 ft 413 kts 234°
2026-04-30 13:19 28.06763 125.33443 34100 ft 412 kts 234°
2026-04-30 13:19 28.03138 125.28420 34087 ft 412 kts 234°
2026-04-30 13:20 27.99497 125.23382 34117 ft 414 kts 234°
2026-04-30 13:20 27.95845 125.18333 34103 ft 415 kts 234°
2026-04-30 13:21 27.92203 125.13305 34106 ft 415 kts 234°
2026-04-30 13:22 27.86712 125.05737 34111 ft 414 kts 234°
2026-04-30 13:22 27.81213 124.98169 34132 ft 416 kts 234°
2026-04-30 13:23 27.75698 124.90593 34108 ft 416 kts 234°
2026-04-30 13:24 27.68342 124.80507 34109 ft 416 kts 234°
2026-04-30 13:25 27.60943 124.70384 34128 ft 419 kts 234°
2026-04-30 13:26 27.51706 124.57740 34101 ft 418 kts 234°
2026-04-30 13:28 27.42411 124.45049 34121 ft 421 kts 234°
2026-04-30 13:28 27.36807 124.37417 34117 ft 421 kts 234°
2026-04-30 13:29 27.29343 124.27271 34123 ft 422 kts 234°
2026-04-30 13:31 27.19945 124.14529 34119 ft 423 kts 234°
2026-04-30 13:32 27.10542 124.01814 34122 ft 426 kts 233°
2026-04-30 13:33 27.02873 123.91590 34128 ft 428 kts 233°
2026-04-30 13:34 26.97109 123.83961 34113 ft 427 kts 233°
2026-04-30 13:35 26.89436 123.73805 34120 ft 429 kts 233°
2026-04-30 13:36 26.81714 123.63609 34126 ft 430 kts 233°
2026-04-30 13:36 26.75903 123.55951 34126 ft 430 kts 233°
2026-04-30 13:37 26.70093 123.48305 34114 ft 430 kts 233°
2026-04-30 13:38 26.64303 123.40701 34127 ft 429 kts 233°
2026-04-30 13:39 26.56554 123.30531 34124 ft 430 kts 233°
2026-04-30 13:40 26.50726 123.22893 34133 ft 432 kts 232°
2026-04-30 13:40 26.46821 123.17784 34128 ft 433 kts 232°
2026-04-30 13:41 26.42902 123.12661 34127 ft 433 kts 233°
2026-04-30 13:41 26.39006 123.07573 34135 ft 434 kts 232°
2026-04-30 13:42 26.35080 123.02451 34138 ft 435 kts 232°
2026-04-30 13:42 26.29152 122.94751 34134 ft 436 kts 232°
2026-04-30 13:43 26.25191 122.89626 34137 ft 436 kts 232°
2026-04-30 13:43 26.21245 122.84521 34123 ft 439 kts 232°
2026-04-30 13:44 26.19245 122.81934 34314 ft 441 kts 232°
2026-04-30 13:44 26.17247 122.79353 34670 ft 439 kts 232°
2026-04-30 13:44 26.15254 122.76781 35101 ft 436 kts 232°
2026-04-30 13:44 26.13278 122.74231 35527 ft 433 kts 232°
2026-04-30 13:45 26.09357 122.69175 36131 ft 432 kts 232°
2026-04-30 13:45 26.07392 122.66640 36124 ft 433 kts 232°
2026-04-30 13:46 26.03487 122.61612 36103 ft 429 kts 232°
2026-04-30 13:46 25.99577 122.56582 36117 ft 431 kts 232°
2026-04-30 13:47 25.95637 122.51518 36126 ft 433 kts 232°
2026-04-30 13:47 25.91695 122.46452 36125 ft 434 kts 232°
2026-04-30 13:48 25.87745 122.41361 36124 ft 435 kts 232°
2026-04-30 13:48 25.83813 122.36298 36094 ft 435 kts 232°
2026-04-30 13:49 25.79860 122.31213 36112 ft 435 kts 232°
2026-04-30 13:49 25.75896 122.26122 36131 ft 436 kts 232°
2026-04-30 13:50 25.71924 122.21025 36141 ft 437 kts 232°
2026-04-30 13:50 25.65951 122.13370 36141 ft 438 kts 232°
2026-04-30 13:51 25.61951 122.08252 36129 ft 438 kts 231°
2026-04-30 13:51 25.57959 122.03166 36125 ft 439 kts 231°
2026-04-30 13:52 25.53934 121.98052 36128 ft 440 kts 231°
2026-04-30 13:52 25.50589 121.93803 36122 ft 440 kts 231°
2026-04-30 13:53 25.46561 121.88689 36120 ft 441 kts 231°
2026-04-30 13:53 25.42528 121.83572 36101 ft 441 kts 231°
2026-04-30 13:54 25.38496 121.78465 36105 ft 441 kts 231°
2026-04-30 13:54 25.34448 121.73341 36104 ft 442 kts 231°
2026-04-30 13:55 25.30401 121.68225 36113 ft 443 kts 231°
2026-04-30 13:55 25.26370 121.63134 36114 ft 443 kts 231°
2026-04-30 13:56 25.22303 121.58002 36097 ft 444 kts 231°
2026-04-30 13:56 25.18236 121.52878 36117 ft 443 kts 231°
2026-04-30 13:57 25.14180 121.47688 36115 ft 444 kts 232°
2026-04-30 13:57 25.10195 121.42505 36118 ft 445 kts 232°
2026-04-30 13:58 25.04160 121.34681 36125 ft 446 kts 232°
2026-04-30 13:59 25.00128 121.29473 36112 ft 447 kts 231°
2026-04-30 13:59 24.96090 121.24266 36129 ft 447 kts 231°
2026-04-30 14:00 24.92044 121.19054 36112 ft 447 kts 232°
2026-04-30 14:00 24.86002 121.11275 36107 ft 448 kts 232°
2026-04-30 14:01 24.81951 121.06068 36099 ft 448 kts 232°
2026-04-30 14:01 24.77894 121.00840 36085 ft 448 kts 232°
2026-04-30 14:02 24.73844 120.95623 36095 ft 448 kts 232°
2026-04-30 14:02 24.69823 120.90447 36078 ft 448 kts 232°
2026-04-30 14:03 24.65766 120.85233 36082 ft 448 kts 232°
2026-04-30 14:03 24.61720 120.80038 36077 ft 448 kts 232°
2026-04-30 14:04 24.57661 120.74831 36078 ft 448 kts 232°
2026-04-30 14:04 24.53470 120.69754 36082 ft 449 kts 229°
2026-04-30 14:05 24.49141 120.64858 36071 ft 450 kts 229°
2026-04-30 14:05 24.44785 120.59940 36074 ft 450 kts 229°
2026-04-30 14:06 24.38253 120.52531 36063 ft 450 kts 229°
2026-04-30 14:07 24.31740 120.45143 36074 ft 449 kts 229°
2026-04-30 14:08 24.25205 120.37743 36071 ft 450 kts 229°
2026-04-30 14:08 24.18712 120.30322 36065 ft 450 kts 229°
2026-04-30 14:09 24.14393 120.25400 36052 ft 450 kts 229°
2026-04-30 14:10 24.07867 120.17991 36048 ft 451 kts 229°
2026-04-30 14:10 24.03516 120.13050 36058 ft 451 kts 229°
2026-04-30 14:11 23.99162 120.08116 36055 ft 451 kts 229°
2026-04-30 14:11 23.94787 120.03196 36043 ft 451 kts 229°
2026-04-30 14:12 23.90404 119.98281 36052 ft 451 kts 229°
2026-04-30 14:12 23.86023 119.93366 36056 ft 451 kts 229°
2026-04-30 14:13 23.81640 119.88453 36057 ft 452 kts 229°
2026-04-30 14:13 23.77246 119.83530 36056 ft 452 kts 229°
2026-04-30 14:14 23.72852 119.78613 36039 ft 452 kts 229°
2026-04-30 14:14 23.68485 119.73731 36060 ft 452 kts 229°
2026-04-30 14:15 23.64082 119.68813 36066 ft 453 kts 229°
2026-04-30 14:15 23.59787 119.63799 36064 ft 451 kts 233°
2026-04-30 14:16 23.56237 119.58176 36070 ft 449 kts 240°
2026-04-30 14:16 23.52935 119.52406 36067 ft 449 kts 240°
2026-04-30 14:17 23.49607 119.46636 36052 ft 450 kts 240°
2026-04-30 14:17 23.46268 119.40878 36057 ft 450 kts 240°
2026-04-30 14:18 23.42918 119.35113 36056 ft 450 kts 240°
2026-04-30 14:18 23.37911 119.26511 36052 ft 450 kts 240°
2026-04-30 14:19 23.32855 119.17839 36056 ft 451 kts 240°
2026-04-30 14:20 23.29511 119.12110 36052 ft 451 kts 240°
2026-04-30 14:20 23.24468 119.03484 36060 ft 451 kts 240°
2026-04-30 14:21 23.21096 118.97724 36059 ft 451 kts 240°
2026-04-30 14:22 23.16040 118.89099 36064 ft 451 kts 240°
2026-04-30 14:22 23.10994 118.80504 36057 ft 451 kts 240°
2026-04-30 14:23 23.04231 118.69009 36062 ft 451 kts 240°
2026-04-30 14:24 22.99158 118.60400 36062 ft 451 kts 240°
2026-04-30 14:25 22.92361 118.48913 36062 ft 452 kts 240°
2026-04-30 14:26 22.87266 118.40355 36051 ft 452 kts 240°
2026-04-30 14:27 22.82153 118.31773 36053 ft 452 kts 240°
2026-04-30 14:27 22.78736 118.26044 36052 ft 452 kts 240°
2026-04-30 14:28 22.73613 118.17465 36071 ft 452 kts 240°
2026-04-30 14:28 22.70191 118.11742 36053 ft 452 kts 239°
2026-04-30 14:29 22.63931 118.01289 36056 ft 452 kts 239°
2026-04-30 14:31 22.54846 117.86081 36052 ft 451 kts 240°
2026-04-30 14:31 22.49767 117.77549 36051 ft 451 kts 240°
2026-04-30 14:32 22.44669 117.69006 36035 ft 451 kts 240°